Dewpoint
40 42 41 40 38 39 38 38 39 38 38 37 38 38 39 40 41 41 41 41 41 42 42 42 41 41 41 41 41 41 41 39 36 36 37 38 36 36 38 39 39 38 37
37 37 35 35 33 31 30 29 29 29 29 29 31 32 33 35 36 36 36 38 38 39 39 38 38 41 41 40 40 40 39 39 37 34 34 35 35 36 36 36 36 36 37
31 28 25 23 23 23 25 25 25 26 25 27 27 27 27 28 27 28 30 33 31 28 31 33 35 35 38 40 40 39 39 38 38 36 34 35 35 35 34 35 34 33 35
22 21 21 21 21 22 23 23 23 24 24 26 25 25 26 25 25 25 24 25 27 29 30 30 31 31 32 35 37 39 38 37 36 36 35 34 33 33 34 33 32 33 32
21 20 20 21 21 21 22 23 22 24 24 24 23 26 23 22 20 23 27 27 25 25 26 27 28 29 31 33 36 35 37 36 35 34 33 32 31 31 31 32 32 31 32
20 19 20 20 20 20 21 20 22 21 21 20 24 20 21 22 23 26 23 24 24 24 26 27 28 29 30 30 31 36 37 36 34 33 32 31 31 31 31 32 31 30 28
19 18 18 18 18 18 18 18 18 18 20 20 18 19 22 20 21 24 24 24 22 25 25 27 25 25 26 25 27 31 34 37 36 34 31 31 29 30 31 31 31 31 29
17 16 16 15 17 16 16 17 17 18 15 17 19 19 20 21 22 22 24 19 20 19 20 22 22 24 25 24 24 25 30 32 35 35 32 30 31 31 31 30 31 31 32
15 15 14 15 16 16 15 17 16 15 17 16 18 19 19 19 20 20 19 19 20 18 19 21 24 25 22 22 24 24 27 30 36 36 34 33 33 34 34 33 31 30 27
14 14 15 16 15 14 16 15 16 16 17 18 18 18 19 18 16 15 15 16 18 21 21 20 18 19 21 22 23 24 25 30 33 34 35 35 35 35 34 34 33 29 29
12 13 14 14 14 14 15 16 16 18 18 18 17 18 17 16 16 15 13 16 21 19 17 17 19 18 19 21 23 24 25 29 33 34 33 32 32 32 33 33 33 31 29
11 11 12 13 13 14 15 16 18 18 17 17 16 16 17 16 16 14 12 13 16 20 20 19 17 17 19 21 22 24 26 28 32 31 30 29 29 30 30 30 32 33 34
11 11 11 13 15 15 16 18 17 18 17 17 17 17 16 16 15 15 15 16 15 17 17 18 21 23 24 25 24 26 29 31 29 28 27 28 29 29 31 32 33 32 32
11 11 11 14 14 16 18 17 17 17 16 18 18 17 16 14 15 15 18 18 17 17 20 22 23 24 25 27 29 31 31 30 29 28 28 29 31 31 30 31 30 30 30
11 12 13 14 15 17 16 17 16 17 17 16 17 16 15 16 13 13 12 13 16 21 22 22 25 27 28 29 30 30 30 30 29 29 29 29 29 30 30 31 30 30 29
11 13 14 15 17 16 17 16 16 15 14 13 12 14 15 12 11 10 10 13 15 22 21 20 21 27 28 28 29 29 30 29 29 30 29 29 29 28 29 29 30 29 28
12 14 15 16 15 15 17 16 15 15 14 12 12 11 10 10 10 8 11 14 13 19 18 19 21 24 25 29 30 29 29 30 30 30 29 29 29 28 28 28 28 28 28
14 14 14 13 14 16 16 15 15 14 12 13 13 11 11 10 8 8 11 14 13 14 17 18 20 22 23 26 27 27 27 27 27 27 27 28 28 28 27 26 27 27 27
14 14 14 12 13 16 15 14 14 13 14 13 13 12 12 11 9 9 9 12 12 12 14 16 20 21 22 24 26 26 26 26 25 24 24 24 24 26 26 26 26 26 27
12 13 10 11 15 14 14 13 13 14 13 13 12 12 12 11 9 9 9 9 11 11 14 15 16 21 22 22 22 26 25 25 22 22 22 22 22 24 23 24 25 25 26
11 9 9 13 14 13 13 13 13 12 13 12 12 12 13 13 10 10 9 9 9 11 13 14 15 18 20 22 22 22 23 25 23 21 20 20 21 21 20 22 24 25 26
5 7 10 14 13 13 13 13 13 12 12 12 12 12 13 12 11 9 9 9 9 11 12 14 13 15 17 18 21 22 23 22 22 21 19 19 19 19 19 20 21 22 24
4 7 14 13 12 13 13 13 12 12 11 12 12 12 11 10 9 9 10 10 11 9 11 11 12 14 13 16 17 20 21 22 22 21 19 18 18 18 18 18 18 18 21
5 12 14 12 12 12 13 11 11 11 10 11 10 11 11 10 9 9 9 9 9 9 9 10 11 9 10 13 14 17 20 22 21 19 17 17 18 18 16 16 17 17 19
10 14 12 12 12 12 11 11 10 10 10 10 10 9 9 10 9 9 10 9 9 8 8 8 8 8 10 12 13 14 13 15 19 18 16 16 17 16 15 16 16 16 17
14 14 12 12 12 11 10 10 9 9 10 9 9 8 8 8 10 10 10 10 9 8 8 8 9 9 9 9 10 9 8 8 15 17 14 14 14 14 14 15 15 14 15
Wind_Speed
18 16 18 17 17 16 17 16 16 17 17 18 18 18 18 17 16 16 16 16 17 19 18 20 22 20 19 18 16 17 17 15 20 18 15 11 12 13 16 12 12 13 12
16 17 18 18 19 19 19 19 18 17 18 19 19 19 20 20 19 19 20 19 19 20 16 18 23 21 24 23 20 21 20 19 19 23 19 13 15 12 14 13 13 14 16
18 19 19 19 18 18 17 17 18 18 19 18 18 19 20 20 20 21 19 18 19 22 20 19 18 23 25 24 23 23 21 19 17 19 20 11 11 12 15 14 17 18 17
16 17 17 18 17 17 16 16 16 16 16 16 18 19 18 21 21 19 22 23 21 19 18 17 18 19 23 26 23 25 22 21 18 18 16 14 12 12 11 14 16 14 19
12 14 14 14 14 15 16 16 17 16 17 17 19 15 19 19 18 23 20 20 24 24 22 21 20 21 27 28 24 21 22 20 18 19 18 14 15 15 16 11 14 16 17
10 11 13 14 14 15 15 16 14 16 16 19 14 20 21 16 22 23 29 26 24 25 24 23 21 22 20 25 29 29 25 26 24 20 18 18 16 13 11 12 13 14 19
9 11 12 14 15 15 15 16 17 17 17 18 21 21 15 19 23 27 29 23 24 22 25 21 23 18 21 23 27 31 28 28 33 26 21 20 17 14 12 13 14 15 20
10 12 14 15 15 16 16 17 16 14 20 20 20 21 21 20 27 30 28 24 23 23 24 25 26 24 20 25 26 29 29 26 26 27 24 22 19 14 15 15 16 18 20
12 13 14 15 15 15 18 16 17 20 18 21 19 23 23 24 27 31 31 24 23 26 24 25 26 23 29 31 27 29 32 29 22 29 26 22 19 17 13 12 15 15 24
13 14 14 14 16 17 14 18 16 19 19 20 22 21 23 22 28 32 33 24 26 23 25 25 31 31 32 32 29 27 29 29 21 16 21 21 18 15 17 18 15 19 17
13 14 13 15 16 12 16 14 18 17 20 21 22 20 21 21 25 33 36 29 24 26 27 29 28 36 38 38 36 30 31 30 26 24 18 14 14 13 12 13 14 18 20
13 13 14 14 13 15 17 17 15 18 20 21 23 23 19 22 25 30 36 36 36 29 29 30 34 42 43 45 42 38 36 35 21 17 13 12 12 13 12 15 16 18 19
13 13 14 13 14 15 17 15 18 16 19 21 21 23 24 22 22 29 32 36 36 31 29 38 48 47 45 39 37 35 28 16 12 10 11 11 13 11 11 12 13 17 19
12 13 13 13 18 15 12 14 15 17 19 20 22 23 23 25 22 24 25 27 31 31 34 38 40 38 34 28 15 9 11 10 10 10 10 11 8 10 10 11 12 14 16
10 11 12 13 14 14 14 14 16 13 17 22 20 21 24 23 26 36 35 32 31 33 39 32 30 14 9 5 1 4 6 7 8 8 7 6 8 8 9 9 11 12 13
10 11 12 13 13 15 16 17 12 17 22 24 26 23 22 27 34 38 37 37 39 38 33 28 32 18 9 5 4 5 5 5 5 5 4 2 2 3 6 7 8 10 12
10 11 12 11 14 16 16 19 26 17 17 21 25 28 28 31 35 36 34 36 33 31 25 31 31 29 23 13 1 6 3 4 4 5 5 2 3 6 5 7 8 9 12
10 12 11 14 15 15 14 16 17 21 28 26 21 26 26 30 34 33 32 29 26 26 26 29 28 28 27 19 17 14 15 14 16 16 15 12 10 8 8 9 10 11 12
9 11 11 13 14 13 12 15 16 18 19 22 23 20 20 27 28 27 27 20 22 24 25 27 25 25 26 24 16 16 16 16 14 14 14 13 14 13 11 11 12 13 15
10 11 13 13 13 13 11 14 17 17 19 20 21 22 22 23 23 21 19 18 19 20 22 23 26 22 22 22 24 16 15 14 15 15 14 14 14 13 14 15 13 14 14
9 12 14 12 12 12 13 14 16 18 19 20 20 20 21 19 20 19 19 18 18 18 19 21 21 23 21 20 18 18 18 10 13 13 13 13 14 14 15 16 15 15 15
10 11 12 11 11 13 14 14 15 17 19 20 21 20 20 17 17 18 18 17 15 15 16 17 18 18 19 20 21 16 16 15 12 12 13 13 13 14 15 15 16 16 17
9 12 11 11 12 13 13 13 15 16 19 20 20 21 19 19 18 19 19 16 14 16 14 15 15 16 16 17 17 18 15 13 8 8 10 12 13 15 15 15 16 17 18
9 12 10 11 12 13 12 15 16 18 19 19 20 20 20 20 19 19 17 17 17 15 14 14 13 16 16 16 15 16 18 13 9 9 11 12 12 14 14 15 15 19 18
10 10 8 12 14 14 15 14 15 17 18 18 20 20 21 21 21 20 17 16 17 17 16 15 14 15 16 16 16 14 18 21 19 11 11 11 13 15 16 15 17 17 18
10 7 10 11 13 13 15 15 16 17 18 19 19 20 21 22 21 20 19 18 17 18 20 17 16 17 16 13 14 16 18 19 17 14 12 11 13 14 15 16 17 16 17
Wind_Direction
37 35 40 35 31 29 21 14 7 4 0 354 347 341 337 335 332 332 323 315 310 294 271 260 255 251 251 250 247 249 247 236 256 266 267 281 297 293 292 316 319 315 305
35 39 34 29 24 22 16 10 6 0 355 351 348 346 340 336 333 326 322 315 311 309 341 337 331 302 258 246 244 245 242 245 248 261 264 261 274 278 278 288 299 305 300
32 33 29 26 21 14 12 5 359 354 348 348 352 345 338 334 333 328 318 332 329 311 300 306 306 313 312 297 253 241 241 238 237 247 259 244 260 273 279 277 282 289 292
35 30 26 19 13 4 359 351 346 340 340 337 337 329 327 327 323 317 325 321 317 319 315 308 303 300 294 293 306 276 241 224 223 231 238 249 258 264 255 267 277 276 283
36 29 16 8 1 350 344 344 337 342 338 334 323 330 330 322 320 322 335 336 327 318 311 303 297 298 298 293 283 287 280 232 214 223 234 241 245 262 261 266 266 282 278
36 25 9 360 352 343 342 340 342 335 333 321 328 326 315 320 332 341 336 322 322 313 305 306 304 303 300 302 298 278 257 264 242 223 233 237 241 238 237 247 263 276 285
40 18 4 356 344 344 342 341 332 332 335 336 323 316 323 332 323 333 326 324 317 320 312 310 305 304 314 309 308 296 280 262 250 239 231 230 237 222 223 243 253 259 267
31 15 4 349 342 343 342 330 335 347 334 326 330 333 330 332 329 326 330 326 314 312 308 303 298 297 299 304 304 306 291 283 263 242 235 235 230 224 221 235 252 266 269
24 11 357 345 346 343 333 351 345 334 334 330 336 332 329 325 328 333 325 321 316 310 308 304 295 305 299 298 298 299 295 281 262 242 230 232 225 217 216 230 232 246 268
16 5 353 351 346 333 2 348 337 333 330 338 328 326 323 327 324 328 328 321 314 309 311 308 301 294 295 294 290 291 289 277 250 234 225 228 220 219 213 228 241 242 255
16 359 351 349 338 358 349 340 332 336 334 328 324 323 325 325 324 328 327 323 317 314 309 304 300 298 293 288 286 280 276 278 260 223 209 202 200 202 206 223 231 244 250
9 352 348 343 352 352 340 333 338 333 328 327 326 325 327 327 327 326 325 323 319 316 309 301 296 294 289 287 285 279 276 274 231 195 186 198 204 218 223 231 236 240 243
5 349 342 352 350 342 332 340 334 332 329 328 326 326 326 330 326 325 321 321 321 314 305 300 296 289 287 285 280 274 261 201 173 181 201 209 210 219 229 228 235 245 252
360 346 346 344 339 329 343 334 331 330 331 328 330 329 330 325 328 324 325 325 322 318 312 308 300 289 285 279 260 190 160 163 184 202 208 208 205 213 229 236 248 250 254
357 341 333 337 328 334 331 330 329 325 327 332 331 330 326 328 328 331 331 329 325 324 320 319 325 299 263 323 111 157 172 187 204 203 203 213 220 228 239 248 249 256 258
349 329 331 330 338 328 325 325 325 329 333 335 334 332 330 330 333 335 333 333 334 334 329 337 347 336 344 270 227 186 171 189 191 196 178 193 233 257 270 279 275 270 274
330 326 331 345 330 325 327 331 331 333 334 333 334 338 339 338 339 338 338 339 341 345 346 346 356 358 11 13 41 108 79 57 86 110 96 88 16 341 334 318 308 297 291
335 337 339 332 320 312 325 330 331 331 330 332 337 338 340 341 342 342 343 344 345 352 349 347 355 358 0 1 25 46 63 53 45 39 31 31 22 11 357 340 323 312 306
336 333 328 323 313 313 330 333 330 327 323 325 329 335 337 338 340 342 346 349 345 346 346 348 348 355 360 6 20 33 36 55 53 46 32 21 10 0 356 344 331 326 322
327 324 329 319 313 327 336 335 332 329 329 328 330 331 332 337 339 340 341 342 342 342 341 345 344 350 356 3 2 14 19 42 42 38 23 11 4 358 355 344 335 333 331
328 328 319 312 329 334 330 331 333 330 327 329 328 328 328 331 328 330 331 334 335 335 337 339 342 346 351 354 358 360 353 38 42 26 19 8 360 358 350 340 334 332 331
325 316 310 322 334 331 329 328 330 327 328 327 328 328 333 332 328 325 323 322 317 326 330 336 335 340 343 351 345 0 2 19 16 21 9 4 356 351 350 344 340 340 337
318 311 315 334 335 328 326 331 326 326 327 327 328 329 334 334 330 328 324 314 312 320 320 326 325 331 339 344 343 345 344 344 360 5 4 359 353 351 349 346 339 342 340
312 310 328 341 330 328 330 329 326 326 325 326 329 328 330 327 324 320 317 318 312 307 307 309 316 321 321 328 335 338 347 353 6 10 8 357 348 347 348 345 345 341 337
310 317 346 333 328 327 331 325 325 324 323 326 326 328 326 323 321 317 315 313 313 308 302 299 301 302 307 321 326 339 345 346 347 360 4 355 346 345 343 341 343 340 339
310 326 336 327 323 327 326 324 323 320 323 325 325 324 324 322 322 321 318 316 313 310 308 304 293 294 304 312 310 317 326 330 330 342 356 353 343 337 335 335 339 346 337